Regional Weather Roundup
Issued by NWS

Home | Current Version | Previous Version | Graphics & Text | Print | Product List | Glossary Off
Versions: 1 2 3 4 5 6 7 8 9 10 11 12 13 14 15 16 17 18 19 20 21 22 23 24 25 26 27 28 29 30 31 32 33 34 35 36 37 38 39 40 41 42 43 44 45 46 47 48 49 50

000
ASUS45 KABQ 221601
RWRNM
WEATHER ROUNDUP FOR NEW MEXICO
NATIONAL WEATHER SERVICE ALBUQUERQUE NM
1000 AM MDT TUE JUL 22 2014

NOTE: "FAIR" MEANS FEW OR NO CLOUDS BELOW 12,000 FEET AGL WITH NO
       SIGNIFICANT WEATHER OR OBSTRUCTIONS TO VISION.

      THIS PRODUCT IS RELEASED AS TWO VERSIONS.  ONE VERSION NEAR
      THE TOP OF THE HOUR CONTAINING PRELIMINARY DATA FROM ALBUQUERQUE
      AND OTHER STATIONS.  A FINAL VERSION WITH ADDITIONAL DATA IS
      ISSUED ABOUT 10 MINUTES AFTER THE HOUR.

NMZ501-503-504-510>518-221700-
NORTHWEST PLATEAU/NORTHCENTRAL MOUNTAINS

CITY           SKY/WX    TMP DP  RH WIND       PRES   REMARKS
FARMINGTON     SUNNY     78  37  22 SE5       30.30F
LOS ALAMOS     MOSUNNY   73  52  47 NE6       30.45S
SANTA FE       MOSUNNY   79  50  36 N15       30.37S
TAOS           SUNNY     73  45  35 CALM      30.47S
ANGEL FIRE     FAIR      67  51  57 CALM      30.55F

$$
NMZ402-403-502-505>509-221700-
WESTCENTRAL MOUNTAINS/SOUTHWEST MOUNTAINS

CITY           SKY/WX    TMP DP  RH WIND       PRES   REMARKS
GALLUP         MOSUNNY   80  41  24 VRB5      30.39S
GRANTS         PTSUNNY   79  40  24 NE3       30.40S

$$
NMZ407-409-411-412-221700-
SOUTHERN DESERTS

CITY           SKY/WX    TMP DP  RH WIND       PRES   REMARKS
LORDSBURG      FAIR      86  48  26 NW8       30.19S
DEMING         MOSUNNY   85  51  31 CALM      30.19S
LAS CRUCES     SUNNY     85  52  31 CALM      30.22R
HOLLOMAN AFB   SUNNY     87  54  32 S9        30.17S
T OR C         MOSUNNY   87  49  26 NE7       30.22F

$$
NMZ519>523-221700-
CENTRAL VALLEYS/CENTRAL HIGHLANDS

CITY           SKY/WX    TMP DP  RH WIND       PRES   REMARKS
ALBUQUERQUE    MOSUNNY   84  51  31 NW8       30.29S
DOUBLE EAGLE   MOSUNNY   81  52  36 VRB5      30.34R
MORIARTY ARPT  FAIR      76  55  48 CALM      30.37S
CLINES CORNERS SUNNY     77  55  46 W7        30.40S
BELEN          FAIR      83  51  32 NW6       30.28S
SOCORRO        FAIR      87  48  26 CALM      30.24R

$$
NMZ524>526-539-540-221700-
SOUTHCENTRAL MOUNTAINS

CITY           SKY/WX    TMP DP  RH WIND       PRES   REMARKS
RUIDOSO        NOT AVBL

$$
NMZ527>531-221700-
NORTHEAST HIGHLANDS/NORTHEAST PLAINS

CITY           SKY/WX    TMP DP  RH WIND       PRES   REMARKS
LAS VEGAS      SUNNY     73  55  53 CALM      30.40S
RATON          SUNNY     79  54  41 E6        30.34F
CLAYTON        SUNNY     87  55  33 W6        30.24S

$$
NMZ532>537-221700-
EASTCENTRAL PLAINS

CITY           SKY/WX    TMP DP  RH WIND       PRES   REMARKS
TUCUMCARI      SUNNY     80  63  55 W6        30.21R
CANNON AFB     PTSUNNY   75  65  70 E6        30.26R
CLOVIS AIRPORT NOT AVBL

$$
NMZ028-029-538-221700-
SOUTHEAST PLAINS

CITY           SKY/WX    TMP DP  RH WIND       PRES   REMARKS
ROSWELL        SUNNY     85  64  49 S13       30.18R
ARTESIA        SUNNY     82  68  61 SE7       30.18R
CARLSBAD       SUNNY     85  68  56 SE9       30.15R


$$



USA.gov is the U.S. government's official web portal to all federal, state and local government web resources and services.